STARLINK-3080, 49161

Orbit data source: Space-Track

STARLINK-3080, 49161 is a payload satellite owned by SpaceX/Seattle (US) in LEO that was launched on Tue, 14 Sep 2021 UTC via an FALCON 9 launch vehicle from the Air Force Western Test Range (AFWTR). Payload-class satellites include a variety of spacecraft equipped with specific instruments for various scientific and technological missions. These include communications satellites like Starlink; space stations such as the ISS; scientific satellites like the Hubble; Earth observation satellites from companies like Planet Labs, Umbra, and HawkEye 360; GPS; miniature CubeSats for education and research; and military/defense satellites.

Loading next visibility...
Identifier
49161, 2021-082AH
Orbit
LEO
Last TLE update
12 hours ago
Origin
Manufacturer
SpaceX/Seattle
Mission
Operational Commercial Communications
Bus & Motor
STARLINK, Unknown motor
Mass
297 kg wet, ~275 kg dry
Launch date (UTC)
2021-09-14 (4 years ago)
Launch vehicle
FALCON 9
Launch site
Air Force Western Test Range (AFWTR)
Object type
Payload
Rocket body
Debris
Shape & HBR
Box + 1 Pan, 8.86 m
Radar Cross Section
13.562 m², Large (>1 m²)

Expand to show TLE details & history

TLE from 12 hours ago
0 STARLINK-3080
1 49161U 21082AH  25183.79800956 -.00000002  00000-0  76694-5 0  9997
2 49161  69.9994 204.4963 0003483 268.9493  91.1267 14.98329368209624
Epoch: 2025-07-02T19:09Z
TLE epoch observation values (Epoch: 2025-07-02T19:09:08.025Z)
Latitude
-0.00005°
Longitude
-3.8611°
Altitude
574.53 km
Speed
7.574 km/s
True Right ascension
13h 37m 59s
True Declination
0° 00' 00"
Sunlit
Object was in daylight at epoch
Visualization orbit readout
Latitude
65.06797°
Longitude
123.76877°
Altitude
584.983 km
Speed
7.573 km/s
Apparent Right ascension
04h 08m 15s
Apparent Declination
29° 31' 59"
Sunlit
Object is in daylight
Visualization observer readout
Local Sidereal Time
18:35:56
Azimuth
32.374° NE
Elevation
-12.546°
Doppler factor
1
Orbital elements
Apogee altitude
572.426 km
Perigee altitude
567.586 km
Semi-major axis
6,948.143 km
Eccentricity
0.00035
Inclination
69.9994°
RAAN
204.4963°
Arg. of periapsis
268.9493°
True anomaly
Unknown
Mean anomaly
91.1267°
Eccentric anomaly
Unknown
Mean motion
3.74749 °/min
Orbital period
96.06 mins
BSTAR
0.0000076694
Loading maneuver chart data...
Loading SW <> Apogee altitude chart data...
Loading historical data...
Loading historical data...
Loading historical data...
Loading historical data...
Loading historical data...
Loading historical data...
Loading historical data...

STARLINK-3080 Visibility forecast

Observer location: undefined°, undefined°

Span
Click to sort rows by Start time (UTC) header in descending order
Start Az.
Max El. time (UTC)
Max El. Az.
Max El.
End time (UTC)
End Az.
6 mins2025-07-03 11:43:11.998Z6.228° NNE2025-07-03 11:46:11.998Z66.364° ENE24.901°2025-07-03 11:49:11.998Z115.825° SE
5 mins2025-07-03 13:22:11.998Z291.26° WNW2025-07-03 13:24:11.998Z251.009° W21.996°2025-07-03 13:27:11.998Z202.434° SSW
5 mins2025-07-04 03:22:11.998Z251.069° W2025-07-04 03:24:11.998Z300.855° NW29.596°2025-07-04 03:27:11.998Z1.062° NNE
|